Airfield :
LOGIN :

Register | Disclaimer

   EN    FR    IT 

 










Legend :    VFR   Marginal VFR   IFR   Intensive IFR   Very Intensive IFR
Visi :
Ceiling :
>= 8 km
>= 3000ft
5 to 8 km
1000 to 3000 ft
1500m to 5 km
500 to 1000 ft
800 to 1500m
200 to 500 ft
< 800m
< 200 ft
Symbols :   Thunderstorms  Fog  Heavy snow  Heavy precipitations  Wind > 20 kt
SIGMETs :     Misc.  Thunderstorms  Icing  Turbulence  Mountain Waves  Volcanic Ashes







- Airport Elevation : 80 ft
- IATA code : LPL
- Download approach charts


EGGP - Liverpool John Lennon

CURRENT METAR :
  • 211420Z 22005KT 9999 FEW036 14/07 Q1024

EXPIRED METARs :
  • 211350Z 23005KT 190V250 9999 FEW036 15/08 Q1024
  • 211320Z 19005KT 150V220 9999 FEW036 15/09 Q1024
  • 211250Z 21006KT 9999 FEW030 14/09 Q1024
  • 211220Z 19005KT 140V220 9999 FEW030 13/09 Q1023
  • 211150Z 22007KT 9999 FEW030 14/09 Q1023

TAF TAF EGGP
Valid from the 21 at 12:00 until the 22 at 12:00 UTC


211101Z 2112/2212 19009KT 9999 SCT025
BECMG 2202/2205 BKN006
PROB30
TEMPO 2204/2209 3000 BR BKN004
BECMG 2207/2210 FEW015
ATIS : +44 151 907 2000 (option 5 or ext 5150)
Met : +44 871 750 5150
No reported NOTAMs for that airfield.



MET'MAP, your aeronautical weather chart ! - Copyright ORBIFLY December 2007 - Disclaimer

ORBIFLY MET'MAP TEAM :

Programming & Development : Alexandra Zaïnal
Concept & Development : Baudouin d'Aumeries
Co-Development & Prog : Marc-Olivier Méhu
Technical & hardware support : Manuel Goepfert

Contact : metmap@orbifly.com




SOURCES & CREDITS :

   NOAA